Location: Saluda
(35.2377°N, 82.3468°W)
Time: 04:30:38
(UTC+00:00)

Vanguard 2 Rocket - Pass Details

Date: 08 October 2022
Orbit: 555 x 3321 km, 32.9° (Epoch: 04 December)

Event Time Altitude Azimuth Distance (km) Brightness Sun altitude
Rises 21:37:14 0° 179° (S) 6,868 11.6 16.3°
Reaches altitude 10° 21:46:19 10° 156° (SSE) 6,191 11.1 14.5°
Maximum altitude 21:53:38 13° 134° (SE) 6,003 10.8 13.1°
Drops below altitude 10° 22:00:51 10° 112° (ESE) 6,179 10.7 11.7°
Sets 22:09:37 0° 90° (E) 6,858 10.7 10.0°
